TimeMST,TemperatureF,Dew PointF,Humidity,Sea Level PressureIn,VisibilityMPH,Wind Direction,Wind SpeedMPH,Gust SpeedMPH,PrecipitationIn,Events,Conditions,WindDirDegrees,DateUTC
12:56 AM,28.9,17.1,61,30.14,-9999.0,WNW,4.6,-,N/A,,Unknown,290,2012-11-13 07:56:00
1:56 AM,24.1,16.0,71,30.14,-9999.0,SW,5.8,-,N/A,,Unknown,230,2012-11-13 08:56:00
2:56 AM,26.1,17.1,69,30.14,-9999.0,WSW,5.8,-,N/A,,Unknown,240,2012-11-13 09:56:00
3:56 AM,27.0,18.0,69,30.14,-9999.0,WSW,4.6,-,N/A,,Unknown,240,2012-11-13 10:56:00
4:56 AM,30.9,21.9,69,30.16,-9999.0,West,9.2,-,N/A,,Unknown,270,2012-11-13 11:56:00
5:56 AM,32.0,24.1,73,30.16,-9999.0,SW,6.9,-,N/A,,Unknown,230,2012-11-13 12:56:00
6:56 AM,32.0,25.0,75,30.17,-9999.0,West,9.2,-,N/A,,Unknown,260,2012-11-13 13:56:00
7:56 AM,33.1,26.1,75,30.18,-9999.0,WSW,8.1,-,N/A,,Unknown,240,2012-11-13 14:56:00
8:56 AM,36.0,28.0,73,30.18,-9999.0,WNW,5.8,-,N/A,,Unknown,290,2012-11-13 15:56:00
9:56 AM,39.9,28.9,65,30.17,-9999.0,WSW,8.1,-,N/A,,Unknown,250,2012-11-13 16:56:00
10:56 AM,43.0,30.0,60,30.16,-9999.0,WSW,13.8,-,N/A,,Unknown,250,2012-11-13 17:56:00
11:56 AM,46.0,28.9,51,30.14,-9999.0,West,15.0,-,N/A,,Unknown,280,2012-11-13 18:56:00
12:56 PM,46.0,28.0,50,30.13,-9999.0,West,17.3,-,N/A,,Unknown,270,2012-11-13 19:56:00
1:56 PM,48.0,27.0,44,30.15,-9999.0,WNW,18.4,24.2,N/A,,Unknown,290,2012-11-13 20:56:00
2:56 PM,44.1,27.0,51,30.16,-9999.0,WNW,16.1,-,N/A,,Unknown,290,2012-11-13 21:56:00
3:56 PM,42.1,27.0,55,30.17,-9999.0,West,12.7,-,N/A,,Unknown,280,2012-11-13 22:56:00
4:56 PM,35.1,25.0,67,30.19,-9999.0,West,9.2,-,N/A,,Unknown,280,2012-11-13 23:56:00
5:56 PM,32.0,25.0,75,30.19,-9999.0,West,8.1,-,N/A,,Unknown,270,2012-11-14 00:56:00
6:56 PM,28.9,24.1,82,30.19,-9999.0,West,6.9,-,N/A,,Unknown,260,2012-11-14 01:56:00
7:56 PM,28.0,24.1,85,30.19,-9999.0,WSW,9.2,-,N/A,,Unknown,250,2012-11-14 02:56:00
8:56 PM,28.0,23.0,81,30.19,-9999.0,WSW,9.2,-,N/A,,Unknown,250,2012-11-14 03:56:00
9:56 PM,30.0,24.1,79,30.17,-9999.0,West,6.9,-,N/A,,Unknown,260,2012-11-14 04:56:00
10:56 PM,30.9,25.0,79,30.15,-9999.0,West,8.1,-,N/A,,Unknown,280,2012-11-14 05:56:00
11:56 PM,30.9,25.0,79,30.13,-9999.0,WSW,4.6,-,N/A,,Unknown,240,2012-11-14 06:56:00